SCOUT A DEB

Satellite information

Favourite Embed

Satellite Type and Status

DEBRISIN ORBIT

Key statistics

Satellite SCOUT A DEB at a glance.

Uptime

21537

Days in orbit

Revolutions

≈ 14.0

Per day

Orbit

SSO

Sun Synchronous Orbit

Inclination

90.2

Latest

Satellite identification and parameters

Extended collection of information and parameters for SCOUT A DEB.

Object identification

Identified? True

Debris? True

Object name: SCOUT A DEB

International designator: 1966-041E

Object number (NORAD): 3591

Object ID (CCSDS): 3591

Country: UNITED STATES OF AMERICA (US)

Current information (Y/N): Y

RCS size: SMALL

Orbital parameters

Period: 102.575 minutes

Inclination: 90.217 deg

SMA: 7258.641 km

Apoapsis: 941.456 km

Periapsis: 819.556 km

RAAN: 72.8079 deg

Eccentricy: 0.0083969

Argument of periapsis: 339.1921 deg

Mean anomaly: 20.5849 deg

Mean motion: 14.03846936 rev/day

Mean motion (dot): 0.00000377 rev/day2

B* drag term: 0.0002265 1/REarth

Two-line elements (TLE)

Creation date: May 6, 2025, 3:54 a.m.

Reference frame: TEME

Reference center: EARTH

Epoch: May 5, 2025, 8:11 p.m. UTC

TLE line 0: 0 SCOUT A DEB

TLE line 1: 1 03591U 66041E 25125.84147320 .00000377 00000-0 22650-3 0 9994

TLE line 2: 2 03591 90.2170 72.8079 0083969 339.1921 20.5849 14.03846936 10233

Live tracking on map

Real-time ground track for satellite SCOUT A DEB.

In-orbit conjunctions

A list of the most updated potential collisions computed for object SCOUT A DEB.

Target Orbit TCA Probability of collision Miss distance Type
CZ-6A DEB SSO 2025-04-11 13:13:57 0.0001018796 191.0 (m) DEBRIS
ARGOS SSO 2025-01-19 19:58:19 0.0001051081 425.0 (m) PAYLOAD
CZ-6A DEB SSO 2024-10-06 02:48:32 0.000107871 249.0 (m) DEBRIS

Associated space launch

The Transit-O series of satellites that closely followed the design of Transit 5C-1 were also called “Oscars” (Oscar is the phonetic alphabet for “O”, i. e., operational). They were also called NNS (Navy Navigation Satellite) or shortened NavSat.

SCOUT A DEB was lifted into orbit during the mission ‘Scout A | Transit-O 9’, on board a Scout A space rocket.

The launch took place on May 19, 1966, 2:27 a.m. from Space Launch Complex 5.

For more information about the launch, click the button.

Launch to space Scout A | Transit-O 9
Scout A | Transit-O 9

Agency: N/A

Status: Launch Successful

Launch date: May 19, 1966, 2:27 a.m. UTC

Rocket: Scout A

Launch pad: Space Launch Complex 5

Location: Vandenberg SFB, CA, USA

...

Latest news about this satellite

There are no fresh news available about this satellite. Check back as we update our databases every day.


Newsletter sign-up

Weekly statistics, charts and insights to help you stay on top of the space industry.